DG4CB-13 Weather Reports


time (UTC)temp
C
wind
direction
speed
KPH
gust
KPH
rain 1hr
cm
rain 24hr
cm
rain mn
cm
humidity
%
barometer
mb
20260506131959 16 0.0 0.0 0.00 0.00 0.00 68 1003.8
20260506130959 16 0.0 0.0 0.00 0.00 0.00 62 1003.7
20260506125959 17 0.0 0.0 0.00 0.00 0.00 62 1003.7
20260506124959 17 0.0 0.0 0.00 0.00 0.00 60 1003.7
20260506123959 17 0.0 0.0 0.00 0.00 0.00 57 1003.5
20260506122959 17 0.0 0.0 0.00 0.00 0.00 57 1003.6
20260506121959 17 0.0 0.0 0.00 0.00 0.00 61 1003.7
20260506121000 17 0.0 0.0 0.00 0.00 0.00 62 1003.8
20260506115959 16 0.0 0.0 0.00 0.00 0.00 62 1003.8
20260506114959 16 0.0 0.0 0.00 0.00 0.00 61 1003.8
20260506113959 17 0.0 0.0 0.00 0.00 0.00 62 1003.8
20260506112959 17 0.0 0.0 0.00 0.00 0.00 63 1003.7
20260506111959 16 0.0 0.0 0.00 0.00 0.00 64 1003.7
20260506110959 16 0.0 0.0 0.00 0.00 0.00 62 1003.8
20260506105959 16 0.0 0.0 0.00 0.00 0.00 65 1003.7
20260506104959 16 0.0 0.0 0.00 0.00 0.00 65 1003.6
20260506104000 16 0.0 0.0 0.00 0.00 0.00 65 1003.6
20260506103000 16 0.0 0.0 0.00 0.00 0.00 67 1003.7
20260506102000 16 0.0 0.0 0.00 0.00 0.00 66 1003.7
20260506101000 16 0.0 0.0 0.00 0.00 0.00 67 1003.7
20260506100000 16 0.0 0.0 0.00 0.00 0.00 68 1003.7
20260506095000 15 0.0 0.0 0.00 0.00 0.00 70 1003.7
20260506094000 15 0.0 0.0 0.00 0.00 0.00 71 1003.8
20260506093000 15 0.0 0.0 0.00 0.00 0.00 72 1003.6
20260506092000 15 0.0 0.0 0.00 0.00 0.00 71 1003.5
20260506091000 15 0.0 0.0 0.00 0.00 0.00 74 1003.5
20260506090000 15 0.0 0.0 0.00 0.00 0.00 78 1003.4
20260506085000 14 0.0 0.0 0.00 0.00 0.00 78 1003.5
20260506084000 14 0.0 0.0 0.00 0.00 0.00 81 1003.6
20260506083000 13 0.0 0.0 0.00 0.00 0.00 81 1003.4
20260506082000 13 0.0 0.0 0.00 0.00 0.00 81 1003.4
20260506081000 13 0.0 0.0 0.00 0.00 0.00 82 1003.4
20260506073000 13 0.0 0.0 0.00 0.00 0.00 85 1003.3
20260506072000 13 0.0 0.0 0.00 0.00 0.00 85 1003.3
20260506071000 13 0.0 0.0 0.00 0.00 0.00 86 1003.4
20260506062000 12 0.0 0.0 0.00 0.00 0.00 89 1003.2
20260506061000 12 0.0 0.0 0.00 0.00 0.00 89 1003.2
20260506051000 12 0.0 0.0 0.00 0.00 0.00 94 1003.2
20260506045000 12 0.0 0.0 0.00 0.00 0.00 94 1003.2
20260506044000 12 0.0 0.0 0.00 0.00 0.00 94 1003.3
20260506043000 12 0.0 0.0 0.00 0.00 0.00 93 1003.2
20260506042000 12 0.0 0.0 0.00 0.00 0.00 93 1003.3
20260506041000 12 0.0 0.0 0.00 0.00 0.00 93 1003.2
20260506040000 12 0.0 0.0 0.00 0.00 0.00 93 1003.2
20260506035000 12 0.0 0.0 0.00 0.00 0.00 93 1003.2
20260506034000 12 0.0 0.0 0.00 0.00 0.00 92 1003.2
20260506033000 12 0.0 0.0 0.00 0.00 0.00 90 1003.2
20260506032000 12 0.0 0.0 0.00 0.00 0.00 89 1003.2
20260506031000 12 0.0 0.0 0.00 0.00 0.00 89 1003.3
20260506030000 12 0.0 0.0 0.00 0.00 0.00 89 1003.3
20260506025000 12 0.0 0.0 0.00 0.00 0.00 89 1003.3
20260506024000 12 0.0 0.0 0.00 0.00 0.00 89 1003.4
20260506023000 12 0.0 0.0 0.00 0.00 0.00 89 1003.3
20260506022000 12 0.0 0.0 0.00 0.00 0.00 89 1003.5
20260506021000 13 0.0 0.0 0.00 0.00 0.00 89 1003.6
20260506020000 13 0.0 0.0 0.00 0.00 0.00 89 1003.6
20260506015000 13 0.0 0.0 0.00 0.00 0.00 89 1003.6
20260506014000 13 0.0 0.0 0.00 0.00 0.00 89 1003.6
20260506013000 13 0.0 0.0 0.00 0.00 0.00 89 1003.7
20260506012000 13 0.0 0.0 0.00 0.00 0.00 89 1003.8
20260506011000 13 0.0 0.0 0.00 0.00 0.00 89 1003.8
20260506010000 13 0.0 0.0 0.00 0.00 0.00 89 1003.8
20260506005000 13 0.0 0.0 0.00 0.00 0.00 89 1003.9
20260506004000 13 0.0 0.0 0.00 0.00 0.00 89 1004.0
20260506003000 13 0.0 0.0 0.00 0.00 0.00 89 1004.0
20260506002000 13 0.0 0.0 0.00 0.00 0.00 89 1004.1
20260506001000 13 0.0 0.0 0.00 0.00 0.00 88 1004.1
20260506000000 13 0.0 0.0 0.00 0.00 0.00 88 1004.2
20260505235000 13 0.0 0.0 0.00 0.00 0.00 87 1004.3
20260505234000 13 0.0 0.0 0.00 0.00 0.00 88 1004.4
20260505233000 13 0.0 0.0 0.00 0.00 0.00 87 1004.4
20260505232000 13 0.0 0.0 0.00 0.00 0.00 87 1004.6
20260505231000 13 0.0 0.0 0.00 0.00 0.00 86 1004.6
20260505230000 14 0.0 0.0 0.00 0.00 0.00 86 1004.6
20260505225000 14 0.0 0.0 0.00 0.00 0.00 86 1004.7
20260505224000 14 0.0 0.0 0.00 0.00 0.00 86 1004.8
20260505223000 14 0.0 0.0 0.00 0.00 0.00 87 1004.9
20260505222000 14 0.0 0.0 0.00 0.00 0.00 87 1005.0
20260505221000 14 0.0 0.0 0.00 0.00 0.00 87 1004.9
20260505220000 14 0.0 0.0 0.00 0.00 0.00 87 1005.0
20260505215000 14 0.0 0.0 0.00 0.00 0.00 87 1005.0
20260505214000 14 0.0 0.0 0.00 0.00 0.00 87 1005.1
20260505213000 14 0.0 0.0 0.00 0.00 0.00 87 1005.1
20260505212000 14 0.0 0.0 0.00 0.00 0.00 87 1005.2
20260505211000 14 0.0 0.0 0.00 0.00 0.00 87 1005.2
20260505210000 14 0.0 0.0 0.00 0.00 0.00 86 1005.3
20260505205000 14 0.0 0.0 0.00 0.00 0.00 86 1005.3
20260505204000 14 0.0 0.0 0.00 0.00 0.00 86 1005.3
20260505203000 15 0.0 0.0 0.00 0.00 0.00 86 1005.4
20260505202000 15 0.0 0.0 0.00 0.00 0.00 84 1005.4
20260505201000 15 0.0 0.0 0.00 0.00 0.00 84 1005.4
20260505200000 15 0.0 0.0 0.00 0.00 0.00 84 1005.3
20260505195000 15 0.0 0.0 0.00 0.00 0.00 84 1005.4
20260505194000 15 0.0 0.0 0.00 0.00 0.00 84 1005.4
20260505193000 15 0.0 0.0 0.00 0.00 0.00 84 1005.3
20260505192000 15 0.0 0.0 0.00 0.00 0.00 83 1005.3
20260505191000 15 0.0 0.0 0.00 0.00 0.00 82 1005.2
20260505190000 15 0.0 0.0 0.00 0.00 0.00 81 1005.2
20260505185000 15 0.0 0.0 0.00 0.00 0.00 81 1005.3
20260505184000 15 0.0 0.0 0.00 0.00 0.00 81 1005.3
20260505183000 15 0.0 0.0 0.00 0.00 0.00 80 1005.3
20260505182000 16 0.0 0.0 0.00 0.00 0.00 79 1005.4
20260505181000 16 0.0 0.0 0.00 0.00 0.00 79 1005.4
20260505180000 16 0.0 0.0 0.00 0.00 0.00 79 1005.5
20260505175000 16 0.0 0.0 0.00 0.00 0.00 79 1005.4
20260505174000 16 0.0 0.0 0.00 0.00 0.00 77 1005.4
20260505173000 16 0.0 0.0 0.00 0.00 0.00 76 1005.4
20260505172000 16 0.0 0.0 0.00 0.00 0.00 76 1005.3
20260505171000 16 0.0 0.0 0.00 0.00 0.00 77 1005.3
20260505165959 16 0.0 0.0 0.00 0.00 0.00 76 1005.4
20260505164959 16 0.0 0.0 0.00 0.00 0.00 77 1005.5
20260505163959 16 0.0 0.0 0.00 0.00 0.00 77 1005.5
20260505162959 16 0.0 0.0 0.00 0.00 0.00 77 1005.7
20260505161959 16 0.0 0.0 0.00 0.00 0.00 76 1005.6
20260505161000 16 0.0 0.0 0.00 0.00 0.00 72 1005.4
20260505153000 20 0.0 0.0 0.00 0.00 0.00 52 1005.1
20260505152000 21 0.0 0.0 0.00 0.00 0.00 48 1004.8
20260505151000 21 0.0 0.0 0.00 0.00 0.00 46 1004.9